CZ-6A DEB

Satellite information

Favourite Embed

Satellite Type and Status

DEBRISIN ORBIT

Key statistics

Satellite CZ-6A DEB at a glance.

Uptime

909

Days in orbit

Revolutions

≈ 14.5

Per day

Orbit

SSO

Sun Synchronous Orbit

Inclination

99.1

Latest

Satellite identification and parameters

Extended collection of information and parameters for CZ-6A DEB.

Object identification

Identified? True

Debris? True

Object name: CZ-6A DEB

International designator: 2022-151QR

Object number (NORAD): 54904

Object ID (CCSDS): 54904

Country: PEOPLES REPUBLIC OF CHINA (PRC)

Current information (Y/N): Y

RCS size: SMALL

Orbital parameters

Period: 99.419 minutes

Inclination: 99.063 deg

SMA: 7108.945 km

Apoapsis: 797.41 km

Periapsis: 664.209 km

RAAN: 204.4448 deg

Eccentricy: 0.0093686

Argument of periapsis: 170.9929 deg

Mean anomaly: 189.297 deg

Mean motion: 14.48421864 rev/day

Mean motion (dot): 0.00008293 rev/day2

B* drag term: 0.0021054 1/REarth

Two-line elements (TLE)

Creation date: May 8, 2025, 3:01 a.m.

Reference frame: TEME

Reference center: EARTH

Epoch: May 7, 2025, 3:56 a.m. UTC

TLE line 0: 0 CZ-6A DEB

TLE line 1: 1 54904U 22151QR 25127.16403582 .00008293 00000-0 21054-2 0 9995

TLE line 2: 2 54904 99.0630 204.4448 0093686 170.9929 189.2970 14.48421864129859

Live tracking on map

Real-time ground track for satellite CZ-6A DEB.

In-orbit conjunctions

A list of the most updated potential collisions computed for object CZ-6A DEB.

Target Orbit TCA Probability of collision Miss distance Type
COSMOS 192 LEO 2025-03-29 12:13:28 0.0001468053 654.0 (m) PAYLOAD
COROT SSO 2024-06-21 16:36:11 0.002661756 45.0 (m) PAYLOAD

Associated space launch

Chinese satellite reported for atmospheric/ocean/environmental/spatial parameter research purposes, details TBD.

CZ-6A DEB was lifted into orbit during the mission ‘Long March 6A | Yunhai 3’, on board a Long March 6A space rocket.

The launch took place on Nov. 11, 2022, 10:52 p.m. from Launch Complex 9A.

For more information about the launch, click the button.

Launch to space Long March 6A | Yunhai 3
Long March 6A | Yunhai 3

Agency: N/A

Status: Launch Successful

Launch date: Nov. 11, 2022, 10:52 p.m. UTC

Rocket: Long March 6A

Launch pad: Launch Complex 9A

Location: Taiyuan Satellite Launch Center, People's Republic of China

...

Latest news about this satellite

There are no fresh news available about this satellite. Check back as we update our databases every day.


Newsletter sign-up

Weekly statistics, charts and insights to help you stay on top of the space industry.